{"data":{"norad_id":58788,"epoch":"2026-05-24T22:39:00.945216Z","epoch_age_seconds":86741,"freshness":"FRESH","line1":"1 58788U 24012B   26144.94376094 -.00002846  00000+0 -93972-4 0  9999","line2":"2 58788  43.0031  94.9865 0001153 260.7960  99.2761 15.27571553132898","mean_motion":15.27571553,"eccentricity":0.0001153,"inclination_deg":43.0031,"raan_deg":94.9865,"arg_perigee_deg":260.796,"mean_anomaly_deg":99.2761,"bstar":-9.3972e-5,"rev_number":13289,"period_min":94.267269979726,"perigee_km":482.28329183979,"apogee_km":483.86548718621,"semimajor_km":6861.211389513,"source":"CELESTRAK","updated_at":"2026-05-25T13:38:18.748544Z"}}